Showing default

EZIE-A, 63247

Orbit data source: Space-Track

EZIE-A, 63247 is a payload satellite owned by U-Space (US) in SSO that was launched on Sat, 15 Mar 2025 UTC via an FALCON 9 launch vehicle from the Air Force Western Test Range (AFWTR). Payload-class satellites include a variety of spacecraft equipped with specific instruments for various scientific and technological missions. These include communications satellites like Starlink; space stations such as the ISS; scientific satellites like the Hubble; Earth observation satellites from companies like Planet Labs, Umbra, and HawkEye 360; GPS; miniature CubeSats for education and research; and military/defense satellites.

Loading next visibility...
Identifier
63247, 2025-052AP
Orbit
SSO
Last TLE update
15 hours ago
Origin
Flag of USUSPACE (US)
Manufacturer
U-Space
Mission
Operational Commercial Technology
Bus & Motor
CUBESAT 12U, Unknown motor
Mass
~16 kg wet, ~16 kg dry
Launch date (UTC)
2025-03-15 (3 months ago)
Launch vehicle
FALCON 9
Launch site
Air Force Western Test Range (AFWTR)
Object type
Payload
Rocket body
Debris
Shape & HBR
Box + 2 Pan, 1.5 m
Radar Cross Section
0.155 m², Small (<0.1 m²)

Expand to show TLE details & history

TLE from 15 hours ago
0 EZIE-A
1 63247U 25052AP  25169.67797941  .00002431  00000-0  24135-3 0  9997
2 63247  97.7286  63.0727 0003561   3.4586 356.6657 14.92658856 14354
Epoch: 2025-06-18T16:16Z
TLE epoch observation values (Epoch: 2025-06-18T16:16:17.421Z)
Latitude
-0.00003°
Longitude
-88.15646°
Altitude
590.215 km
Speed
7.566 km/s
True Right ascension
04h 12m 17s
True Declination
0° 00' 00"
Sunlit
Object was in daylight at epoch
Visualization orbit readout
Latitude
36.73412°
Longitude
98.24325°
Altitude
596.663 km
Speed
7.564 km/s
Apparent Right ascension
12h 35m 17s
Apparent Declination
1° 59' 50"
Sunlit
Object is in full shadow
Visualization observer readout
Local Sidereal Time
18:14:00
Azimuth
268.115° W
Elevation
5.362°
Doppler factor
1
Orbital elements
Apogee altitude
589.145 km
Perigee altitude
584.185 km
Semi-major axis
6,964.802 km
Eccentricity
0.00036
Inclination
97.7286°
RAAN
63.0727°
Arg. of periapsis
3.4586°
True anomaly
Unknown
Mean anomaly
356.6657°
Eccentric anomaly
Unknown
Mean motion
3.73405 °/min
Orbital period
96.41 mins
BSTAR
0.00024135
Loading maneuver chart data...
Loading SW <> Apogee altitude chart data...
Loading historical data...
Loading historical data...
Loading historical data...
Loading historical data...
Loading historical data...
Loading historical data...
Loading historical data...

EZIE-A Visibility forecast

Observer location: undefined°, undefined°

Span
Click to sort rows by Start time (UTC) header in descending order
Start Az.
Max El. time (UTC)
Max El. Az.
Max El.
End time (UTC)
End Az.
6 mins2025-06-19 16:32:22.067Z142.417° SSE2025-06-19 16:35:22.067Z72.246° E36.457°2025-06-19 16:38:22.067Z4.157° NNE
6 mins2025-06-20 05:51:22.067Z8.888° NNE2025-06-20 05:54:22.067Z214.605° SW42.786°2025-06-20 05:57:22.067Z197.099° SSW
|